ASC 2

operational
NORAD ID: 21227 Int'l Des: 1991-028 Owner: CONTG Country: US
HEOCIRCULAR

关于 ASC 2

正在加载描述...

实时位置

正在加载3D地球...

即将过境

高度历史

Altitude vs Time

uPlot chart will show altitude changes over time

两行轨道根数

1 21227U 91028A 26062.75226161 -.00000307 00000-0 00000+0 0 9990
2 21227 13.6660 14.6239 0007944 309.0329 225.6137 0.99567601125325
Epoch: Mar 3, 2026 • Age: 28 hours

当前状态

高度 35953.1 km
速度 3.07 km/s
星下点 -9.03°S, 116.76°E
发射日期 Apr 13, 1991
运行时间 34.8 years
类型 other

技术详情

分类 Payload
质量 705.00 kg
干质量 550.00 kg
总质量 1352.00 kg
长度 2.00 m
直径 1.30 m
跨度 14.00 m
形状 Box + 2 Pan
制造商 GEEW
平台类型 AS3000
阶段状态 Renamed
所有者/国家 CONTG/US

大型星座

Loading constellations...